Tracking 35331 objects as of 14-Sep-2026
HD Live streaming from Space Station
objects crossing your sky now

STARLINK-35364

Track STARLINK-35364 now!
10-day predictions
STARLINK-35364 is classified as:


NORAD ID: 65840
Int'l Code: 2025-221T
Launch date: September 29, 2025
Source: United States (US)
Launch site: AIR FORCE WESTERN TEST RANGE (AFWTR)
Your satellite tracking list
Your tracking list is empty




NASA's NSSDC Master Catalog

Two Line Element Set (TLE):
1 65840U 25221T   26257.48239863  .00014704  00000-0  44542-3 0  9998
2 65840  53.1587 287.5015 0001261 100.2406 259.8738 15.34402605 53690
Source of the keplerian elements: AFSPC